Hourly Weather Barreiro

Today, 19 April, Monday

Time Temperature Precipitation Wind Pressure Humidity
00:00 +14°C° 0 mm 1 mps 763 mmHg 80%
01:00 +13°C° 0 mm 1 mps 763 mmHg 82%
02:00 +13°C° 0 mm 1 mps 763 mmHg 83%
03:00 +13°C° 0 mm 1 mps 763 mmHg 83%
04:00 +13°C° 0 mm 1 mps 763 mmHg 83%
05:00 +13°C° 0 mm 1 mps 763 mmHg 83%
06:00 +15°C° 0 mm 2 mps 763 mmHg 75%
07:00 +16°C° 0 mm 2 mps 763 mmHg 67%
08:00 +18°C° 0 mm 2 mps 763 mmHg 58%
09:00 +19°C° 0 mm 2 mps 763 mmHg 53%
10:00 +21°C° 0 mm 3 mps 763 mmHg 47%
11:00 +22°C° 0 mm 3 mps 763 mmHg 42%
12:00 +22°C° 0 mm 4 mps 763 mmHg 44%
13:00 +22°C° 0 mm 4 mps 762 mmHg 46%
14:00 +22°C° 0 mm 5 mps 762 mmHg 47%
15:00 +21°C° 0 mm 5 mps 762 mmHg 54%
16:00 +20°C° 0 mm 5 mps 762 mmHg 60%
17:00 +19°C° 0 mm 5 mps 762 mmHg 67%
18:00 +18°C° 0 mm 4 mps 762 mmHg 75%
19:00 +16°C° 0 mm 3 mps 763 mmHg 83%
20:00 +14°C° 0 mm 3 mps 763 mmHg 91%
21:00 +14°C° 0 mm 3 mps 763 mmHg 93%
22:00 +13°C° 0 mm 3 mps 762 mmHg 94%
23:00 +13°C° 0 mm 3 mps 762 mmHg 95%

Tomorrow, 20 April, Tuesday

Time Temperature Precipitation Wind Pressure Humidity
00:00 +13°C° 0 mm 3 mps 762 mmHg 95%
01:00 +13°C° 0 mm 3 mps 762 mmHg 95%
02:00 +13°C° 0 mm 3 mps 761 mmHg 95%
03:00 +13°C° 0 mm 3 mps 761 mmHg 95%
04:00 +12°C° 0 mm 3 mps 761 mmHg 96%
05:00 +13°C° 0 mm 2 mps 761 mmHg 96%
06:00 +14°C° 0 mm 3 mps 761 mmHg 89%
07:00 +16°C° 0 mm 3 mps 761 mmHg 82%
08:00 +18°C° 0 mm 3 mps 762 mmHg 75%
09:00 +19°C° 0.1 mm 4 mps 761 mmHg 69%
10:00 +20°C° 0.1 mm 4 mps 761 mmHg 64%
11:00 +21°C° 0.1 mm 4 mps 761 mmHg 58%
12:00 +21°C° 0 mm 5 mps 761 mmHg 57%
13:00 +21°C° 0 mm 5 mps 760 mmHg 56%
14:00 +21°C° 0 mm 6 mps 760 mmHg 55%
15:00 +20°C° 0 mm 6 mps 760 mmHg 60%
16:00 +19°C° 0 mm 5 mps 760 mmHg 64%
17:00 +17°C° 0 mm 5 mps 760 mmHg 69%
18:00 +16°C° 0 mm 5 mps 760 mmHg 76%
19:00 +15°C° 0 mm 4 mps 761 mmHg 83%
20:00 +13°C° 0 mm 4 mps 761 mmHg 90%
21:00 +13°C° 0 mm 3 mps 761 mmHg 91%
22:00 +13°C° 0 mm 3 mps 761 mmHg 91%
23:00 +13°C° 0 mm 3 mps 760 mmHg 92%

Day after tomorrow, 21 April, Wednesday

Time Temperature Precipitation Wind Pressure Humidity
00:00 +13°C° 0 mm 3 mps 760 mmHg 92%
01:00 +13°C° 0 mm 3 mps 760 mmHg 91%
02:00 +14°C° 0 mm 2 mps 759 mmHg 91%
03:00 +14°C° 0 mm 2 mps 759 mmHg 91%
04:00 +14°C° 0 mm 2 mps 759 mmHg 91%
05:00 +14°C° 0 mm 1 mps 759 mmHg 91%
06:00 +15°C° 0 mm 2 mps 759 mmHg 84%
07:00 +16°C° 0 mm 2 mps 759 mmHg 78%
08:00 +17°C° 0 mm 3 mps 759 mmHg 71%
09:00 +18°C° 0 mm 3 mps 759 mmHg 68%
10:00 +19°C° 0 mm 4 mps 759 mmHg 66%
11:00 +19°C° 0 mm 4 mps 758 mmHg 63%
12:00 +19°C° 0.2 mm 5 mps 758 mmHg 69%
13:00 +17°C° 0.2 mm 6 mps 758 mmHg 74%
14:00 +17°C° 0.2 mm 6 mps 758 mmHg 80%
15:00 +17°C° 0.2 mm 6 mps 757 mmHg 82%
16:00 +17°C° 0.2 mm 6 mps 757 mmHg 83%
17:00 +16°C° 0.2 mm 6 mps 757 mmHg 85%
18:00 +16°C° 0.3 mm 5 mps 757 mmHg 88%
19:00 +15°C° 0.3 mm 5 mps 757 mmHg 91%
20:00 +14°C° 0.3 mm 4 mps 758 mmHg 95%
21:00 +14°C° 0.3 mm 4 mps 758 mmHg 95%
22:00 +14°C° 0.3 mm 4 mps 758 mmHg 95%
23:00 +13°C° 0.3 mm 4 mps 757 mmHg 95%

22 April, Thursday

Time Temperature Precipitation Wind Pressure Humidity
00:00 +13°C° 0.2 mm 4 mps 757 mmHg 95%
01:00 +13°C° 0.2 mm 4 mps 757 mmHg 95%
02:00 +13°C° 0.2 mm 4 mps 757 mmHg 95%
03:00 +13°C° 0.1 mm 3 mps 757 mmHg 95%
04:00 +13°C° 0.1 mm 3 mps 757 mmHg 95%
05:00 +13°C° 0.1 mm 2 mps 757 mmHg 94%
06:00 +15°C° 0 mm 2 mps 758 mmHg 87%
07:00 +17°C° 0 mm 2 mps 758 mmHg 80%
08:00 +18°C° 0 mm 2 mps 758 mmHg 72%
09:00 +19°C° 0 mm 3 mps 758 mmHg 66%
10:00 +20°C° 0 mm 3 mps 759 mmHg 61%
11:00 +21°C° 0 mm 3 mps 759 mmHg 55%
12:00 +21°C° 0 mm 3 mps 759 mmHg 55%
13:00 +21°C° 0 mm 4 mps 758 mmHg 55%
14:00 +21°C° 0 mm 4 mps 758 mmHg 55%
15:00 +20°C° 0 mm 4 mps 758 mmHg 59%
16:00 +20°C° 0 mm 3 mps 758 mmHg 63%
17:00 +19°C° 0 mm 3 mps 758 mmHg 68%
18:00 +18°C° 0 mm 2 mps 759 mmHg 73%
19:00 +17°C° 0 mm 2 mps 759 mmHg 79%
20:00 +15°C° 0 mm 1 mps 759 mmHg 84%
21:00 +15°C° 0 mm 1 mps 759 mmHg 84%
22:00 +16°C° 0 mm 1 mps 759 mmHg 83%
23:00 +16°C° 0 mm 2 mps 758 mmHg 83%

23 April, Friday

Time Temperature Precipitation Wind Pressure Humidity
00:00 +15°C° 0 mm 2 mps 758 mmHg 84%
01:00 +15°C° 0 mm 2 mps 757 mmHg 84%
02:00 +15°C° 0 mm 2 mps 757 mmHg 85%
03:00 +14°C° 0 mm 3 mps 757 mmHg 85%
04:00 +14°C° 0 mm 3 mps 757 mmHg 85%
05:00 +13°C° 0 mm 3 mps 757 mmHg 85%
06:00 +14°C° 0 mm 3 mps 757 mmHg 79%
07:00 +16°C° 0 mm 3 mps 757 mmHg 74%
08:00 +18°C° 0 mm 3 mps 757 mmHg 68%
09:00 +18°C° 0.1 mm 3 mps 757 mmHg 67%
10:00 +18°C° 0.1 mm 4 mps 757 mmHg 66%
11:00 +18°C° 0.1 mm 4 mps 757 mmHg 64%
12:00 +18°C° 0.3 mm 4 mps 757 mmHg 66%
13:00 +18°C° 0.3 mm 4 mps 757 mmHg 67%
14:00 +19°C° 0.3 mm 4 mps 757 mmHg 69%
15:00 +18°C° 0.1 mm 4 mps 757 mmHg 72%
16:00 +18°C° 0.1 mm 4 mps 757 mmHg 74%
17:00 +17°C° 0.1 mm 5 mps 757 mmHg 77%
18:00 +17°C° 0.1 mm 4 mps 757 mmHg 79%
19:00 +17°C° 0.1 mm 4 mps 757 mmHg 82%
20:00 +17°C° 0.1 mm 4 mps 757 mmHg 84%
21:00 +15°C° 0.1 mm 4 mps 757 mmHg 85%
22:00 +16°C° 0.1 mm 3 mps 757 mmHg 86%
23:00 +16°C° 0.1 mm 3 mps 757 mmHg 88%

24 April, Saturday

Time Temperature Precipitation Wind Pressure Humidity
00:00 +16°C° 0.1 mm 3 mps 757 mmHg 88%
01:00 +14°C° 0.1 mm 3 mps 757 mmHg 89%
02:00 +13°C° 0.1 mm 3 mps 757 mmHg 90%
03:00 +13°C° 0.1 mm 3 mps 757 mmHg 92%
04:00 +13°C° 0.1 mm 3 mps 757 mmHg 94%
05:00 +13°C° 0.1 mm 4 mps 757 mmHg 96%
06:00 +15°C° 0 mm 4 mps 757 mmHg 87%
07:00 +16°C° 0 mm 5 mps 757 mmHg 79%
08:00 +19°C° 0 mm 5 mps 757 mmHg 70%
09:00 +20°C° 0 mm 5 mps 757 mmHg 65%
10:00 +21°C° 0 mm 5 mps 757 mmHg 59%
11:00 +23°C° 0 mm 4 mps 756 mmHg 53%
12:00 +23°C° 0 mm 4 mps 756 mmHg 54%
13:00 +24°C° 0 mm 3 mps 756 mmHg 55%
14:00 +24°C° 0 mm 3 mps 755 mmHg 56%
15:00 +22°C° 0.1 mm 3 mps 755 mmHg 61%
16:00 +21°C° 0.1 mm 3 mps 755 mmHg 67%
17:00 +20°C° 0.1 mm 3 mps 756 mmHg 73%
18:00 +19°C° 0.2 mm 3 mps 756 mmHg 78%
19:00 +18°C° 0.2 mm 2 mps 756 mmHg 84%
20:00 +16°C° 0.2 mm 2 mps 756 mmHg 89%
21:00 +16°C° 0.4 mm 2 mps 756 mmHg 90%
22:00 +16°C° 0.4 mm 2 mps 756 mmHg 92%
23:00 +16°C° 0.4 mm 2 mps 756 mmHg 93%
Show more